Location: Banff
(51.1667°N, 115.5667°W)
Time: 09:55:15
(UTC+00:00)

A-11 Canister half - Pass Details

Date: 03 December 2020
Orbit: 1524 x 1684 km, 47.3° (Epoch: 20 January)

Event Time Altitude Azimuth Distance (km) Brightness Sun altitude
Exits shadow 11:20:24 20° 178° (S) 3,235 10.5 -37.6°
Maximum altitude 11:25:30 30° 137° (SE) 2,698 10.4 -36.8°
Drops below altitude 10° 11:33:42 10° 82° (E) 3,922 11.9 -35.6°
Sets 11:37:19 0° 72° (ENE) 4,894 12.6 -35.0°
